Situs Poker Online Indonesia | Agen Domino Qiu Qiu | Bandar Ceme | Judi Poker Uang Asli Terpercaya

Jackpot

Texas Poker Multi Jackpot System

Kini Telah hadir Jackpot SUPER ROYAL FLUSH

Kini Telah hadir Jackpot 2000 (khusus table VIP keatas).

Ikutilah global jackpot yang tersedia di system kami, dengan system jackpot terbaru dan pertama di indonesia, anda dapat membeli jackpot dengan harga 100 rupiah saja dan menangkan hadiahnya hingga puluhan juta rupiah.

Jackpot bukanlah suatu keharusan untuk dibeli, namun kami memberikan suatu fitur tambahan untuk member tercinta dari www.pokerpusat.net.

Terdapat tiga pilihan harga jackpot yang bisa anda beli yaitu :100,500,1000 dan 2000(khusus table VIP Keatas) rupiah.

Hadiah dari Multi jackpot system www.pokerpusat.net

  1. full house x 10 harga jackpot yang anda beli.
      (contoh:anda membeli 1000 maka:1000 X10 = 10.000)
  2. four of kind x 250 harga jackpot yang anda beli
      (contoh:anda membeli 1000 maka:1000 X250 = 250.000)
  3. Straight flush x 1200
      (contoh:anda membeli 1000 maka:1000 X1200 = 1.200.000)
  4. Royal flush x 10000 harga jackpot yang anda beli
      (contoh:anda membeli 1000 maka:1000 X10000 = 10.000.000)
  5. SUPER ROYAL FLUSH x 30000 harga jackpot yang anda beli
      (contoh:anda membeli 1000 maka:1000 X30000 = 30.000.000)

Kondisi kartu

  1. full house adalah kondisi kartu dimana kartu anda dan kartu tengah dengan total 7 kartu bisa mendapatkan nilai 5 kartu dengan kombinasi 1 tris(three of kind) dan 1 pair, contoh 3 kartu 10 dan 2 kartu 5
  2. Four of kind adalah kondisi kartu dimana kartu anda dan kartu tengah dengan total 7 kartu bisa mendapatkan nilai 5 kartu dengan kombinasi 4 kartu yang sama jumlah dan 1 kartu apapun juga contoh anda mendapatkan 4 buah kartu angka 3 dan 1 kartu apapun.
  3. Staright flush adalah kondisi kartu dimana kartu anda dan kartu tengah dengan total 7 kartu bisa mendapatkan nilai 5 kartu dengan kombinasi seri / staright dengan kembang yang sama contoh : urutan kartu dari angka 5, 6, 7, 8 , 9 10 dengan kembang yg sama misalnya as hati
  4. Royal flush adalah kondisi kartu dimana kartu anda dan kartu tengah dengan total 7 kartu bisa mendapatkan nilai 5 kartu dengan kombinasi seri / staright dengan kembang yang sama tetapi kartu tersebut haruslah dimulai dari 10. contoh 10, Queen, Jack, King dan aces dengan kembang yang sama
  5. Super Royal flush adalah kondisi kartu dimana Kedua kartu anda digabung dengan 3 kartu pertama meja haruslah royal flush. contoh kartu anda 10,Queen kembang sama dan 3 kartu pertama meja adalah Jack, King dan aces dengan kembang yang sama

Demikian adalah penjelasan dari Multi Jackpot www.pokerpusat.net terima kasih dan selamat bermain salam hoki dari kami

Texas Poker Jackpot Winner

TOP SUPER ROYAL FLUSH
No.TanggalNamaPriceWin
121/04 22:26KEYU99Super Royal flush30,000,000
221/04 20:50KESET24Super Royal flush30,000,000
321/04 19:12POZ88Super Royal flush6,000,000
421/04 17:27COYYOUNFLOSuper Royal flush15,000,000
521/04 15:59AHOK787Super Royal flush6,000,000
TOP ROYAL FLUSH
No.TanggalNamaPriceWin
122/04 01:42NONA_124Royal flush1,000,000
222/04 01:40C6088803Royal flush2,000,000
322/04 01:32MAJUTARI13Royal flush5,000,000
422/04 01:30PEZANTANRoyal flush2,000,000
522/04 01:27GEMINI1990Royal flush2,000,000
TOP STRAIGHT FLUSH
No.TanggalNamaPriceWin
122/04 01:42SNI53210Straight Flush60,000
222/04 01:42ALOOONGStraight Flush240,000
322/04 01:41DEPOO01Straight Flush2,400,000
422/04 01:39RAJA9000Straight Flush600,000
522/04 01:38YANGTERCINStraight Flush120,000
LATEST JACKPOT
No.TanggalNamaPriceWin
122/04 01:44TALANGKANGFour Of A Kind12,500
222/04 01:44YVR93BABO8Full House5,000
322/04 01:44TITAN8778Full House10,000
422/04 01:44KAMI889Full House5,000
522/04 01:44BUNGAA76Full House2,000
622/04 01:44JUNTAK67Full House2,000
722/04 01:44DEBU_ROKOKFull House2,000
822/04 01:44KENTHUS88Full House2,000
922/04 01:44CJ0009Full House1,000
1022/04 01:44IKEMBPASFull House5,000
1122/04 01:44ASUS2018Full House2,000
1222/04 01:44CHERBOND75Full House500
1322/04 01:44AYUU2710Full House2,000
1422/04 01:44JUWANDA01Full House1,000
1522/04 01:44TOG3LZ04Full House10,000
1622/04 01:44PLGBUKGAMYOSFull House10,000
1722/04 01:44AMDA66400Full House5,000
1822/04 01:44BILLCOFour Of A Kind125,000
1922/04 01:44R32O77Four Of A Kind125,000
2022/04 01:44SILVERIEFour Of A Kind50,000
2122/04 01:44Y4JH2JAVO7Four Of A Kind125,000
2222/04 01:44DD4898ADFull House5,000
2322/04 01:44PAUSKINGFull House10,000
2422/04 01:44VGOHOKI99Full House2,000
2522/04 01:44MAMAMIABOSFull House5,000
2622/04 01:44KENZU005Full House5,000
2722/04 01:44DC2A670BUUFull House2,000
2822/04 01:44BIRCOROFull House1,000
2922/04 01:44MIO4646Full House1,000
3022/04 01:44SVNJ86VGUHFull House5,000
3122/04 01:44PISCES_01Full House5,000
3222/04 01:44AQS4O6FOS5Full House2,000
3322/04 01:44AAWLADIN20Four Of A Kind50,000
3422/04 01:44LEAN_Full House2,000
3522/04 01:44IDON7474Full House5,000
3622/04 01:44PLETTYFull House2,000
3722/04 01:44SENEN72Full House5,000
3822/04 01:44PRIDA76Full House5,000
3922/04 01:44A_D_EEFull House2,000
4022/04 01:44A2E53B9AFull House5,000
4122/04 01:44LHOPETFull House5,000
4222/04 01:44REZEKY11Full House2,000
4322/04 01:44DEDISURYANFull House20,000
4422/04 01:44TRIRIZKIFour Of A Kind250,000
4522/04 01:44HEND1602Full House2,000
4622/04 01:44XXN01586XXFull House2,000
4722/04 01:44MLASTER55Full House1,000
4822/04 01:44E5EF1F9FFull House1,000
4922/04 01:44B757ED38Full House5,000
5022/04 01:44CADUXX77Full House2,000

Domino Multi Jackpot System

Ikutilah global jackpot yang tersedia di system kami, dengan system jackpot terbaru dan pertama di indonesia, anda dapat membeli jackpot dengan harga 100 rupiah saja dan menangkan hadiahnya hingga puluhan juta rupiah.

Jackpot bukanlah suatu keharusan untuk dibeli, namun kami memberikan suatu fitur tambahan untuk member tercinta dari www.pokerpusat.net.

Terdapat tiga pilihan harga jackpot yang bisa anda beli yaitu :100,500 dan 1000 rupiah.

Hadiah dari Multi jackpot system www.pokerpusat.net

  1. Murni Kecil x 50 harga jackpot yang anda beli.
      (contoh:anda membeli 1000 maka:1000 X 50 = 50.000)
  2. Murni Besar x 50 harga jackpot yang anda beli
      (contoh:anda membeli 1000 maka:1000 X 50 = 50.000)
  3. BALAK x 100 harga jackpot yang anda beli
      (contoh:anda membeli 1000 maka:1000 X 100 = 100.000)
  4. ENAM DEWA x 6666 harga jackpot yang anda beli
      (contoh:anda membeli 1000 maka:1000 X 6666 = 6.666.000)

Demikian adalah penjelasan dari Multi Jackpot www.pokerpusat.net terima kasih dan selamat bermain salam hoki dari kami

Domino Jackpot Winner

TOP ENAM DEWA
No.TanggalNamaPriceWin
122/04 00:41ANDREKECENmurni enam666,600
221/04 22:39DIOLOY02murni enam6,666,000
321/04 21:22PURWADI_44murni enam6,666,000
421/04 19:27EXZF5YM7WGmurni enam666,600
521/04 17:52KALOK99murni enam6,666,000
TOP BALAK
No.TanggalNamaPriceWin
122/04 01:44A4HEL5ECOXbalak10,000
222/04 01:44SAUDDD99balak100,000
322/04 01:43EMANGRASIbalak50,000
422/04 01:41HENRY04balak50,000
522/04 01:40KREWOL86balak100,000
LATEST JACKPOT
No.TanggalNamaPriceWin
122/04 01:44A4HEL5ECOXbalak10,000
222/04 01:44SAUDDD99balak100,000
322/04 01:44HENGKI005murni kecil50,000
422/04 01:43WIGUNA13murni besar25,000
522/04 01:43EMANGRASIbalak50,000
622/04 01:42DIJOSRAmurni kecil50,000
722/04 01:42ZUZUKE86murni besar25,000
822/04 01:42BASTIAN94murni besar5,000
922/04 01:41TEKKO77murni kecil5,000
1022/04 01:41HENRY04balak50,000
1122/04 01:40KREWOL86balak100,000
1222/04 01:40DANGER0lucky992,500
1322/04 01:40SHOWA111murni besar5,000
1422/04 01:40ASEPKURmurni kecil25,000
1522/04 01:39ONELUCKbalak10,000
1622/04 01:39MASTERX777murni kecil25,000
1722/04 01:39TEKKO77murni kecil5,000
1822/04 01:39OJOB99murni besar50,000
1922/04 01:38ACIL7777murni kecil25,000
2022/04 01:38SHESIETENbalak100,000
2122/04 01:38DE5GRSXN0Imurni kecil50,000
2222/04 01:38ABDULLAHCCmurni besar50,000
2322/04 01:37ZHEZHAT11murni besar25,000
2422/04 01:37SETEMPORmurni besar50,000
2522/04 01:37DARULOH9murni kecil5,000
2622/04 01:37KOKIPOKEERmurni besar5,000
2722/04 01:36NRDN03murni besar50,000
2822/04 01:36INODEmurni kecil25,000
2922/04 01:36E3FB7B36balak100,000
3022/04 01:36MAKAN33murni kecil25,000
3122/04 01:35SITAKAmurni besar5,000
3222/04 01:35NAYRA13murni kecil5,000
3322/04 01:34KH4D4F1Emurni kecil50,000
3422/04 01:34OSAKAVIPmurni kecil50,000
3522/04 01:33ALUSARIHmurni besar50,000
3622/04 01:33JTPLATmurni besar50,000
3722/04 01:33ZUKY005murni kecil50,000
3822/04 01:33OCAS_VIPmurni kecil5,000
3922/04 01:33TENDI25balak10,000
4022/04 01:33T4DPRADILANmurni kecil25,000
4122/04 01:32JAWAR4_69murni besar50,000
4222/04 01:32MRGELOmurni kecil50,000
4322/04 01:31GATELCOKmurni besar5,000
4422/04 01:31SUPERX2murni kecil25,000
4522/04 01:31FERINA81murni besar25,000
4622/04 01:31RUMAHPROmurni besar5,000
4722/04 01:30WANDA75balak100,000
4822/04 01:30BR4NBRYNmurni kecil50,000
4922/04 01:29KAJAGA4murni besar50,000
5022/04 01:29ZHAQUEENlucky9925,000

Ceme Multi Jackpot System

Jackpot dilihat dari gabungan kartu pemain dengan kartu bandar. Bandar harus membeli jackpot sebanyak jumlah player yang sedang duduk. Sebagai contoh bila terdapat 3 pemain duduk bermain, dan bandar memutuskan untuk membeli jackpot Rp 1.000, maka pada periode tersebut bandar akan membeli jackpot sebanyak 3xRp1.000 = Rp3.000.

Jackpot bukanlah suatu keharusan untuk dibeli, namun kami memberikan suatu fitur tambahan untuk member tercinta dari www.pokerpusat.net.

Terdapat tiga pilihan harga jackpot yang bisa anda beli yaitu :100,500 dan 1000 rupiah.

Hadiah dari Multi jackpot system www.pokerpusat.net

  1. Murni Kecil x 50 harga jackpot yang anda beli.
      (contoh:anda membeli 1000 maka:1000 X 50 = 50.000)
  2. Murni Besar x 50 harga jackpot yang anda beli
      (contoh:anda membeli 1000 maka:1000 X 50 = 50.000)
  3. BALAK x 200 harga jackpot yang anda beli
      (contoh:anda membeli 1000 maka:1000 X 200 = 200.000)
  4. ENAM DEWA x 6666 harga jackpot yang anda beli
      (contoh:anda membeli 1000 maka:1000 X 6666 = 6.666.000)

Demikian adalah penjelasan dari Multi Jackpot www.pokerpusat.net terima kasih dan selamat bermain salam hoki dari kami

Ceme Jackpot Winner

TOP ENAM DEWA
No.TanggalNamaPriceWin
122/04 01:09NARUTOPJTmurni enam3,333,000
222/04 01:09MANGGOR88murni enam3,333,000
322/04 01:05PATELE12murni enam6,666,000
422/04 00:59PAT0408murni enam6,666,000
522/04 00:32EJOG114murni enam6,666,000
TOP BALAK
No.TanggalNamaPriceWin
122/04 01:43AGUSAJAH88balak200,000
222/04 01:4251P1Rbalak100,000
322/04 01:41ARJUNO52balak20,000
422/04 01:41KANCIL102balak100,000
522/04 01:41CETENDETbalak200,000
LATEST JACKPOT
No.TanggalNamaPriceWin
122/04 01:44SOPO23murni kecil25,000
222/04 01:44SATRIA_22murni kecil50,000
322/04 01:44HOYOONG99murni besar50,000
422/04 01:44CUPANG2012murni kecil50,000
522/04 01:44AAAALDUC78murni kecil25,000
622/04 01:44OZI1210221murni besar50,000
722/04 01:44SUPARJIImurni besar50,000
822/04 01:44KOSAK567murni kecil25,000
922/04 01:44LCMILDmurni kecil50,000
1022/04 01:44JOHESmurni kecil50,000
1122/04 01:44DEDENRIRImurni kecil5,000
1222/04 01:44ZAENAL1704murni kecil50,000
1322/04 01:44NONIE111murni kecil25,000
1422/04 01:44B18YO90343murni kecil50,000
1522/04 01:44RUJITO_murni kecil50,000
1622/04 01:44SARIZAWA02murni kecil50,000
1722/04 01:43XPXPXPmurni besar25,000
1822/04 01:43OMIAN66murni besar50,000
1922/04 01:43GHI36murni besar5,000
2022/04 01:43JAPRA979murni kecil50,000
2122/04 01:43AGUSAJAH88balak200,000
2222/04 01:43BUNGLON378murni kecil5,000
2322/04 01:43GOWIR77murni kecil25,000
2422/04 01:43QNZEAN9MZUmurni kecil5,000
2522/04 01:43PERMAN08murni kecil5,000
2622/04 01:43OMAY67murni kecil50,000
2722/04 01:43OMAY67murni kecil50,000
2822/04 01:43SENTHIT_murni kecil25,000
2922/04 01:43CITRA2115murni besar50,000
3022/04 01:43BAINENEmurni besar50,000
3122/04 01:43M0RA17murni kecil5,000
3222/04 01:43ENZO1899murni besar50,000
3322/04 01:43HNDR1980murni besar50,000
3422/04 01:42JAPRA979murni kecil50,000
3522/04 01:42BP885553murni besar50,000
3622/04 01:42GREEBBBmurni kecil5,000
3722/04 01:42BP885553murni besar50,000
3822/04 01:42T1MT1Mmurni besar5,000
3922/04 01:42UIW8GLT3KUmurni kecil50,000
4022/04 01:4251P1Rbalak100,000
4122/04 01:42OMAY67murni kecil50,000
4222/04 01:42TAMPAN0909murni kecil25,000
4322/04 01:42GENTO_0murni kecil5,000
4422/04 01:42GENTO_0murni kecil5,000
4522/04 01:41FRNANDOmurni kecil50,000
4622/04 01:41BARA701murni besar50,000
4722/04 01:41ARJUNO52balak20,000
4822/04 01:41Q1UB4P3Kmurni kecil25,000
4922/04 01:41KANCIL102balak100,000
5022/04 01:41CETENDETbalak200,000